Regional Weather Roundup
Issued by NWS Memphis, TN

Home | Current Version | Previous Version | Text Only | Print | Product List | Glossary On
Versions: 1 2 3 4 5 6 7 8 9 10 11 12 13 14 15 16 17 18 19 20 21 22 23 24 25 26 27 28 29 30 31 32 33 34 35 36 37 38 39 40 41 42 43 44 45 46 47 48 49 50
000
ASUS44 KMEG 232100
RWRMEG
MEMPHIS CWA HOURLY WEATHER ROUNDUP
NATIONAL WEATHER SERVICE MEMPHIS TN
300 PM CST SUN NOV 23 2014

...WEST TENNESSEE...

CITY           SKY/WX    TMP DP  RH WIND       PRES   REMARKS
MEMPHIS INTL   CLOUDY    63  60  90 S8        29.32F
NWS MEMPHIS      N/A     62 N/A N/A MISG        N/A
JACKSON        CLOUDY    59  56  89 SE10G16   29.35F
LEXINGTON      CLOUDY    57  55  94 VRB6      29.38F
SAVANNAH       PTSUNNY   61  61 100 SE13      29.39F
DYERSBURG      CLOUDY    57  46  67 E6        29.35F
UNION CITY     CLOUDY    55  55 100 SW7       29.36F
PARIS          CLOUDY    55  54  94 SE8       29.39F


...EASTERN ARKANSAS...

CITY           SKY/WX    TMP DP  RH WIND       PRES   REMARKS
JONESBORO      LGT RAIN  57  57 100 SE5       29.34F
WEST MEMPHIS   CLOUDY    60  60 100 S3        29.31F
BATESVILLE     CLOUDY    59  57  94 SE5       29.34F
WALNUT RIDGE   CLOUDY    57  55  94 S3        29.34F
BLYTHEVILLE    LGT RAIN  64  58  80 E10       29.33F
SEARCY         CLOUDY    60  59  96 S6        29.37F
STUTTGART      CLOUDY    61  59  94 SW10      29.37F
PINE BLUFF     CLOUDY    63  60  90 SW9       29.38F
MONTICELLO     CLOUDY    64  60  87 SW12      29.41F


...NORTH MISSISSIPPI...

CITY           SKY/WX    TMP DP  RH WIND       PRES   REMARKS
TUPELO         CLOUDY    66  61  84 MISG      29.39F
OLIVE BRANCH   PTSUNNY   61  59  94 S7        29.33F
TUNICA         RAIN      63  61  94 S3        29.33F
GREENWOOD      RAIN      62  59  90 SW21G31   29.44R
COLUMBUS       PTSUNNY   67  60  78 S13G20    29.45R
STARKVILLE       N/A    N/A N/A N/A SW12G20   29.46R
GOLDEN TRIANGL CLOUDY    68  57  68 S16G25    29.46R


...SOUTHEAST MISSOURI...

CITY           SKY/WX    TMP DP  RH WIND       PRES   REMARKS
WEST PLAINS    CLOUDY    56  54  93 S6        29.35F
POPLAR BLUFF   LGT RAIN  57  55  93 E3        29.34F FOG
CAPE GIRARDEAU LGT RAIN  56  55  97 E10       29.36F FOG


...NORTHWEST ALABAMA...

CITY           SKY/WX    TMP DP  RH WIND       PRES   REMARKS
MUSCLE SHOALS  CLOUDY    60  57  89 SE12G20   29.47F


...MIDDLE TENNESSEE...

CITY           SKY/WX    TMP DP  RH WIND       PRES   REMARKS
NASHVILLE      LGT RAIN  59  56  89 SE17G26   29.48F
CLARKSVILLE    RAIN      58  56  93 SE16      29.43F FOG


...WESTERN KENTUCKY...

CITY           SKY/WX    TMP DP  RH WIND       PRES   REMARKS
PADUCAH        RAIN      56  54  93 E10       29.36F FOG
FORT CAMPBELL  LGT RAIN  57  57 100 SE15G22   29.42F FOG


...CENTRAL ARKANSAS...

CITY           SKY/WX    TMP DP  RH WIND       PRES   REMARKS
LITTLE ROCK    LGT RAIN  62  58  86 SW7       29.36F FOG


SKY/WX REPORTED AS FAIR MEANS FEW OR NO CLOUDS BELOW
12 THOUSAND FEET.



USA.gov is the U.S. government's official web portal to all federal, state and local government web resources and services.